Overview Statistics Trail Chart Weather Telemetry Raw packets
 

This is the latest recevied weather packets stored in our database for station/object OK1TBM-13. If no packets are shown the sender has not sent any weather packets the latest 10 day(s).

<< 36 37 38 39 40 41 42 >>
Time Temp. Humidity Pressure Rain* Wind** Luminosity Snow
1788331502 17.78° C 73% 1019.6 hPa 0 mm - 247 W/m² -
1788331200 17.78° C 73% 1019.6 hPa 0 mm - 232 W/m² -
1788330900 17.22° C 75% 1020 hPa 0 mm - 218 W/m² -
1788330602 16.67° C 77% 1020 hPa 0 mm - 201 W/m² -
1788330302 16.67° C 78% 1020 hPa 0 mm - 188 W/m² -
1788330002 15.56° C 80% 1020 hPa 0 mm - 172 W/m² -
1788329702 15.56° C 81% 1020 hPa 0 mm - 156 W/m² -
1788329401 14.44° C 86% 1020 hPa 0 mm - 142 W/m² -
1788329102 13.89° C 89% 1020 hPa 0 mm - 124 W/m² -
1788328808 13.33° C 92% 1020 hPa 0 mm - 113 W/m² -
1788328501 11.67° C 99% 1020 hPa 0 mm - 82 W/m² -
1788328201 11.67° C 99% 1020 hPa 0 mm - 52 W/m² -
1788327901 11.67° C 99% 1019.6 hPa 0 mm - 68 W/m² -
1788327601 10.56° C 99% 1019.6 hPa 0 mm - 60 W/m² -
1788327301 10.56° C 99% 1019.6 hPa 0 mm - 57 W/m² -
1788327002 10.56° C 99% 1019.6 hPa 0 mm - 58 W/m² -
1788326702 10.56° C 99% 1019.6 hPa 0 mm - 59 W/m² -
1788326401 10.56° C 99% 1019.6 hPa 0 mm - 58 W/m² -
1788325801 10° C 99% 1019.6 hPa 0 mm - 51 W/m² -
1788325501 10° C 99% 1019.6 hPa 0 mm - 45 W/m² -
1788325201 10° C 99% 1019.3 hPa 0 mm - 38 W/m² -
1788324902 9.44° C 99% 1019.3 hPa 0 mm - 34 W/m² -
1788324601 9.44° C 99% 1019.3 hPa 0 mm - 31 W/m² -
1788323701 8.89° C 99% 1019.3 hPa 0 mm - 18 W/m² -
1788323401 8.89° C 99% 1019.3 hPa 0 mm - 13 W/m² -

* Rain latest hour (hover to see other rain measurements)
** Current wind speed in m/s (hover to see current wind gust speed)